Regional Weather Roundup
Issued by NWS

Home | Current Version | Previous Version | Graphics & Text | Print | Product List | Glossary On
Versions: 1 2 3 4 5 6 7 8 9 10 11 12 13 14 15 16 17 18 19 20 21 22 23 24 25 26 27 28 29 30 31 32 33 34 35 36 37 38 39 40 41 42 43 44 45 46 47 48 49 50
000
ASUS45 KSLC 220310
RWRUT

UTAH REGIONAL WEATHER ROUNDUP
NATIONAL WEATHER SERVICE SALT LAKE CITY UT
900 PM MDT SUN SEP 21 2014

UTZ001>011-023>025-220400-

NORTHERN UTAH

CITY           SKY/WX    TMP DP  RH WIND       PRES   REMARKS
HILL AFB       CLEAR     59  54  83 E9        30.17R
LOGAN          PTCLDY    57  55  93 CALM      30.18R
OGDEN          CLEAR     60  57  89 NE5       30.15S
PROVO AIRPORT  PTCLDY    61  55  82 CALM      30.18R
SALT LAKE CITY MOCLDY    63  56  78 E7        30.14R
VERNAL         PTCLDY    56  54  93 W6        30.24R
WENDOVER       CLOUDY    61  50  67 N7        30.15F
HEBER CITY     CLEAR     55  52  88 CALM      30.23R
WEST JORDAN    CLEAR     61  57  88 S7        30.16S

$$

UTZ012>022-026-027-220400-

SOUTHERN UTAH

CITY           SKY/WX    TMP DP  RH WIND       PRES   REMARKS
BRYCE CANYON   CLEAR     52  48  86 NW5       30.32R
CEDAR CITY     PTCLDY    60  56  86 CALM      30.18R
MILFORD        CLOUDY    65  56  72 N13       30.15R
MOAB/CYNLANDS  CLEAR     66  62  87 E13       30.15R
PRICE          PTCLDY    59  54  83 N5        30.23R
ST GEORGE      CLEAR     72  63  73 S5        30.02R
KANAB            N/A     64  57  77 CALM      30.17R

$$

REGIONAL REPORTS     COLORADO/ARIZONA

CITY           SKY/WX    TMP DP  RH WIND       PRES   REMARKS
CRAIG, CO      CLOUDY    55  49  80 CALM      30.32S
GRAND JUNCTION CLOUDY    59  58  96 CALM      30.20S
RIFLE          LGT RAIN  61  58  90 W8        30.27R
MONTROSE       PTCLDY    63  55  75 NE3       30.28R
CORTEZ         TSTM      66  55  67 S37G45    30.27R
PAGE, AZ       CLEAR     76  54  46 W3        30.09R
GRAND CANYON   CLEAR     53  46  77 CALM      30.27R
KINGMAN        CLEAR     72  38  29 S10       30.04R
FLAGSTAFF      CLEAR     57  48  72 CALM      30.31R

$$

REGIONAL REPORTS    NEVADA/IDAHO/WYOMING

CITY           SKY/WX    TMP DP  RH WIND       PRES   REMARKS
LAS VEGAS, NV  PTCLDY    89  45  21 S10       29.87R
ELY            CLOUDY    51  49  92 S5        30.25S
ELKO           CLOUDY    62  42  47 VRB3      30.12F
POCATELLO, ID  LGT RAIN  59  59 100 S3        30.17R
BURLEY         MOCLDY    59  57  93 E5        30.11S
EVANSTON, WY   CLOUDY    51  48  89 E6        30.30R
ROCK SPRINGS   CLOUDY    52  51  97 E7        30.29F

$$



USA.gov is the U.S. government's official web portal to all federal, state and local government web resources and services.